#timestamp,LO_Frequency,Hit,StdDev 
1525107615.7,286046999.7,N
1525107635.6,286047002.7,N
1525107655.4,286047002.4,N
1525107675.3,286047002.4,N
1525107695.1,286047002.7,N
1525107696.0,286047002.7,N
1525107715.8,286047002.2,N
1525107735.7,286047002.5,N
1525107755.5,286047002.1,N
1525107775.3,286047001.6,N
1525107795.2,286047002.7,N
1525107815.0,286047001.6,N
1525107815.9,286047001.6,N
1525107835.8,286047003.9,Y
1525107855.6,286046999.8,P
1525107875.4,286046999.8,N
1525107895.3,286047000.3,N
1525107915.1,286047000.5,N
1525107935.9,286047000.1,N
1525107955.7,286046998.1,Y
1525107975.5,286046999.3,P
1525107995.4,286046998.8,N
1525108015.2,286046998.3,N
1525108035.1,286047000.8,N
1525108036.0,286047000.8,N
1525108055.8,286047002.8,N
1525108075.6,286047002.1,N
1525108095.5,286047000.3,N
1525108115.3,286047000.2,N
1525108135.1,286047002.2,N
1525108155.9,286047000.1,N
1525108175.7,286047000.9,N
1525108195.6,286046998.1,N
1525108215.4,286046999.5,N
1525108235.2,286046998.9,N
1525108255.1,286047000.8,N
1525108256.0,286047000.8,N
1525108275.8,286047000.0,N
1525108295.7,286046999.9,N
1525108315.5,286047002.3,N
1525108335.3,286046999.9,N
1525108355.2,286046999.7,N
1525108375.9,286047001.0,N
1525108395.7,286047001.1,N
1525108415.6,286047000.6,N
1525108435.4,286047000.3,N
1525108455.3,286047001.1,N
1525108475.1,286047001.2,N
1525108476.0,286047001.2,N
1525108495.8,286046998.5,N
1525108515.7,286047000.9,N
1525108535.5,286047000.5,N
1525108555.4,286046999.9,N
1525108575.2,286047002.3,N
1525108595.0,286047000.1,N
1525108595.9,286047000.1,N
1525108615.8,286047001.0,N
1525108635.6,286047002.6,N
1525108655.4,286047002.4,N
1525108675.3,286047002.7,N
1525108695.1,286047002.8,N
1525108715.9,286047000.6,N
1525108735.7,286046998.2,N
1525108755.5,286046998.4,N
1525108775.4,286046998.6,N
1525108795.2,286047001.2,N
1525108815.0,286046998.7,N
1525108816.0,286046998.7,N
1525108835.8,286046998.8,N
1525108855.6,286046999.3,N
1525108875.5,286047000.9,N
1525108895.3,286047002.6,N
1525108915.1,286047002.6,N
1525108935.9,286047002.2,N
1525108955.7,286047000.4,N
1525108975.6,286046999.7,N
1525108995.4,286046999.7,N
1525109015.2,286047001.5,N
1525109035.1,286047002.0,N
1525109036.0,286047002.0,N
1525109055.8,286047002.0,N
1525109075.6,286047000.5,N
1525109095.5,286047004.3,N
1525109115.3,286047002.3,N
1525109135.2,286047000.0,N
1525109155.9,286047002.8,N
1525109175.7,286047002.0,N
1525109195.6,286047001.6,N
1525109215.4,286047001.7,N
1525109235.2,286047004.2,N
1525109255.1,286047004.3,N
1525109256.0,286047004.3,N
1525109275.8,286047002.9,N
1525109295.7,286047006.0,Y
1525109315.5,286047001.5,P
1525109335.4,286047001.8,P
1525109355.2,286047002.2,P
1525109375.0,286047000.5,N
1525109375.9,286047000.5,N
1525109395.8,286047000.1,N
1525109415.6,286046999.9,N
1525109435.5,286047002.6,Y
1525109455.3,286047002.4,P
1525109475.1,286047000.8,N
1525109495.9,286047000.4,N
1525109515.7,286047000.6,N
1525109535.5,286047000.6,N
1525109555.4,286047000.6,N
1525109575.2,286047000.0,N
1525109595.1,286047000.5,N
1525109596.0,286047000.5,N
1525109615.8,286046998.2,Y
1525109635.6,286046999.6,P
1525109655.5,286046997.1,P
1525109675.3,286046996.9,N
1525109695.2,286046996.9,N
1525109715.9,286046997.1,N
1525109735.7,286046997.1,N
1525109755.6,286046999.4,N
1525109775.4,286046997.3,N
1525109795.3,286046997.7,N
1525109815.1,286046997.5,N
1525109816.0,286046997.5,N
1525109835.8,286046995.1,Y
1525109855.7,286046999.6,P
1525109875.5,286046995.2,P
1525109895.3,286046997.1,N
1525109915.2,286046996.5,N
1525109935.0,286046996.8,N
1525109935.9,286046996.8,N
1525109955.8,286046999.1,N
1525109975.6,286046998.7,N
1525109995.4,286046999.0,N
1525110015.3,286046996.7,N
1525110035.1,286046999.5,N
1525110055.9,286046996.6,N
1525110075.7,286046996.7,N
1525110095.5,286046996.9,N
1525110115.4,286046996.8,N
1525110135.2,286046996.6,N
1525110155.0,286046996.9,N
1525110155.9,286046996.9,N
1525110175.8,286046996.5,N
1525110195.6,286046996.6,N
1525110215.5,286046997.1,N
1525110235.3,286046996.8,N
1525110255.1,286046997.4,N
1525110275.9,286046997.4,N
1525110295.7,286046997.2,N
1525110315.5,286046997.8,N
1525110335.4,286046995.2,Y
1525110355.2,286046999.6,P
1525110375.1,286046996.7,N
1525110376.0,286046996.7,N
1525110395.8,286046997.1,N
1525110415.6,286046996.6,Y
1525110435.5,286047001.2,P
1525110455.3,286047001.0,N
1525110475.2,286047000.7,N
1525110495.9,286047000.7,N
1525110515.7,286046998.1,N
1525110535.6,286046999.2,N
1525110555.4,286046999.2,N
1525110575.2,286047000.6,N
1525110595.1,286046998.4,N
1525110596.0,286046998.4,N
1525110615.8,286046998.7,N
1525110635.7,286046998.9,N
1525110655.5,286047001.1,N
1525110675.3,286046998.5,N
1525110695.2,286046996.5,N
1525110715.0,286046998.4,N
1525110715.9,286046998.4,N
1525110735.8,286047001.0,N
1525110755.6,286046998.6,N
1525110775.4,286047000.8,N
1525110795.3,286046998.3,N
1525110815.1,286046998.7,N
1525110835.9,286046999.4,N
1525110855.7,286046998.6,N
1525110875.5,286047001.2,N
1525110895.4,286047000.6,N
1525110915.2,286047000.6,N
1525110935.0,286047000.8,N
1525110935.9,286047000.8,N
1525110955.8,286046998.8,N
1525110975.6,286047001.2,N
1525110995.5,286047001.2,N
1525111015.3,286046998.3,N
1525111035.1,286047000.8,N
1525111055.9,286047001.2,N
1525111075.7,286046998.7,N
1525111095.5,286046999.0,N
1525111115.4,286046999.1,N
1525111135.2,286046996.5,N
1525111155.1,286046998.3,N
1525111156.0,286046998.3,N
1525111175.8,286046998.5,N
1525111195.6,286046998.3,N
